Time,TemperatureF,DewpointF,PressureIn,WindDirection,WindDirectionDegrees,WindSpeedMPH,WindSpeedGustMPH,Humidity,HourlyPrecipIn,Conditions,Clouds,dailyrainin,SoftwareType,DateUTC
2013-03-22 00:02:00,33.0,26.0,-100.00,SSE,150,1.0,2.0,76,-99.99,,,-99.99,,2013-03-22 07:02:00,
2013-03-22 00:12:00,34.0,27.0,-100.00,SSE,168,1.0,3.0,73,-99.99,,,-99.99,,2013-03-22 07:12:00,
2013-03-22 00:22:00,34.0,27.0,-100.00,SSE,168,1.0,3.0,73,-99.99,,,-99.99,,2013-03-22 07:22:00,
2013-03-22 00:32:00,33.0,25.0,-100.00,SSE,168,1.0,2.0,73,-99.99,,,-99.99,,2013-03-22 07:32:00,
2013-03-22 00:42:00,33.0,25.0,-100.00,SSE,168,1.0,2.0,73,-99.99,,,-99.99,,2013-03-22 07:42:00,
2013-03-22 00:52:00,33.0,25.0,-100.00,South,172,2.0,3.0,71,-99.99,,,-99.99,,2013-03-22 07:52:00,
2013-03-22 01:02:00,33.0,25.0,-100.00,South,172,2.0,3.0,71,-99.99,,,-99.99,,2013-03-22 08:02:00,
2013-03-22 01:12:00,32.0,25.0,-100.00,SSE,147,1.0,2.0,75,-99.99,,,-99.99,,2013-03-22 08:12:00,
2013-03-22 01:22:00,32.0,25.0,-100.00,SSE,147,1.0,2.0,75,-99.99,,,-99.99,,2013-03-22 08:22:00,
2013-03-22 01:32:00,32.0,24.0,-100.00,SSE,167,1.0,2.0,72,-99.99,,,-99.99,,2013-03-22 08:32:00,
2013-03-22 01:42:00,32.0,24.0,-100.00,SSE,167,1.0,2.0,72,-99.99,,,-99.99,,2013-03-22 08:42:00,
2013-03-22 01:52:00,31.0,22.0,-100.00,SSE,164,2.0,3.0,70,-99.99,,,-99.99,,2013-03-22 08:52:00,
2013-03-22 02:02:00,31.0,22.0,-100.00,SSE,164,2.0,3.0,70,-99.99,,,-99.99,,2013-03-22 09:02:00,
2013-03-22 02:12:00,31.0,22.0,-100.00,SSE,157,1.0,2.0,68,-99.99,,,-99.99,,2013-03-22 09:12:00,
2013-03-22 02:22:00,31.0,22.0,-100.00,SSE,157,1.0,2.0,68,-99.99,,,-99.99,,2013-03-22 09:22:00,
2013-03-22 02:32:00,31.0,22.0,-100.00,SSE,157,1.0,2.0,68,-99.99,,,-99.99,,2013-03-22 09:32:00,
2013-03-22 02:53:00,30.0,21.0,-100.00,SSE,154,0.0,2.0,70,-99.99,,,-99.99,,2013-03-22 09:53:00,
2013-03-22 03:03:00,30.0,21.0,-100.00,SSE,154,0.0,2.0,70,-99.99,,,-99.99,,2013-03-22 10:03:00,
2013-03-22 03:12:00,30.0,21.0,-100.00,SSE,160,1.0,2.0,69,-99.99,,,-99.99,,2013-03-22 10:12:00,
2013-03-22 03:22:00,30.0,21.0,-100.00,SSE,165,1.0,2.0,69,-99.99,,,-99.99,,2013-03-22 10:22:00,
2013-03-22 03:32:00,30.0,21.0,-100.00,SSE,160,0.0,1.0,70,-99.99,,,-99.99,,2013-03-22 10:32:00,
2013-03-22 03:42:00,30.0,21.0,-100.00,SSE,160,0.0,1.0,70,-99.99,,,-99.99,,2013-03-22 10:42:00,
2013-03-22 03:52:00,29.0,21.0,-100.00,South,171,0.0,2.0,70,-99.99,,,-99.99,,2013-03-22 10:52:00,
2013-03-22 04:02:00,29.0,20.0,-100.00,SSE,160,1.0,2.0,70,-99.99,,,-99.99,,2013-03-22 11:02:00,
2013-03-22 04:12:00,29.0,21.0,-100.00,South,169,1.0,2.0,70,-99.99,,,-99.99,,2013-03-22 11:12:00,
2013-03-22 04:22:00,29.0,20.0,-100.00,SSE,161,1.0,3.0,70,-99.99,,,-99.99,,2013-03-22 11:22:00,
2013-03-22 04:32:00,29.0,21.0,-100.00,SSE,165,1.0,2.0,71,-99.99,,,-99.99,,2013-03-22 11:32:00,
2013-03-22 04:42:00,28.0,20.0,-100.00,SSE,160,1.0,2.0,72,-99.99,,,-99.99,,2013-03-22 11:42:00,
2013-03-22 04:52:00,28.0,20.0,-100.00,SSE,164,1.0,2.0,72,-99.99,,,-99.99,,2013-03-22 11:52:00,
2013-03-22 05:02:00,28.0,20.0,-100.00,SSE,164,1.0,2.0,72,-99.99,,,-99.99,,2013-03-22 12:02:00,
2013-03-22 05:12:00,29.0,20.0,-100.00,SSE,168,1.0,2.0,71,-99.99,,,-99.99,,2013-03-22 12:12:00,
2013-03-22 05:22:00,28.0,20.0,-100.00,SSE,158,0.0,2.0,71,-99.99,,,-99.99,,2013-03-22 12:22:00,
2013-03-22 05:32:00,28.0,20.0,-100.00,SSE,158,0.0,2.0,71,-99.99,,,-99.99,,2013-03-22 12:32:00,
2013-03-22 05:42:00,28.0,20.0,-100.00,SSE,160,0.0,1.0,71,-99.99,,,-99.99,,2013-03-22 12:42:00,
2013-03-22 05:52:00,28.0,20.0,-100.00,SSE,160,0.0,1.0,71,-99.99,,,-99.99,,2013-03-22 12:52:00,
2013-03-22 06:02:00,28.0,20.0,-100.00,South,169,1.0,2.0,70,-99.99,,,-99.99,,2013-03-22 13:02:00,
2013-03-22 06:12:00,28.0,20.0,-100.00,South,169,1.0,2.0,70,-99.99,,,-99.99,,2013-03-22 13:12:00,
2013-03-22 06:22:00,28.0,20.0,-100.00,SSE,152,0.0,1.0,71,-99.99,,,-99.99,,2013-03-22 13:22:00,
2013-03-22 06:32:00,28.0,20.0,-100.00,SSE,152,0.0,1.0,71,-99.99,,,-99.99,,2013-03-22 13:32:00,
2013-03-22 06:42:00,28.0,19.0,-100.00,SSE,161,1.0,2.0,68,-99.99,,,-99.99,,2013-03-22 13:42:00,
2013-03-22 06:52:00,28.0,19.0,-100.00,SSE,161,1.0,2.0,68,-99.99,,,-99.99,,2013-03-22 13:52:00,
2013-03-22 07:02:00,27.0,18.0,-100.00,West,263,0.0,1.0,68,-99.99,,,-99.99,,2013-03-22 14:02:00,
2013-03-22 07:12:00,27.0,18.0,-100.00,West,263,0.0,1.0,68,-99.99,,,-99.99,,2013-03-22 14:12:00,
2013-03-22 07:22:00,26.0,16.0,-100.00,ESE,120,0.0,1.0,64,-99.99,,,-99.99,,2013-03-22 14:22:00,
2013-03-22 07:32:00,26.0,16.0,-100.00,ESE,120,0.0,1.0,64,-99.99,,,-99.99,,2013-03-22 14:32:00,
2013-03-22 07:42:00,27.0,16.0,-100.00,SSE,167,1.0,2.0,63,-99.99,,,-99.99,,2013-03-22 14:42:00,
2013-03-22 07:52:00,27.0,16.0,-100.00,SSE,167,1.0,2.0,63,-99.99,,,-99.99,,2013-03-22 14:52:00,
2013-03-22 08:02:00,27.0,14.0,-100.00,SSE,162,0.0,2.0,58,-99.99,,,-99.99,,2013-03-22 15:02:00,
2013-03-22 08:12:00,27.0,14.0,-100.00,South,169,0.0,2.0,58,-99.99,,,-99.99,,2013-03-22 15:12:00,
2013-03-22 08:22:00,27.0,14.0,-100.00,South,169,0.0,2.0,58,-99.99,,,-99.99,,2013-03-22 15:22:00,
2013-03-22 08:32:00,27.0,14.0,-100.00,East,96,0.0,3.0,57,-99.99,,,-99.99,,2013-03-22 15:32:00,
2013-03-22 08:42:00,27.0,14.0,-100.00,East,96,0.0,3.0,57,-99.99,,,-99.99,,2013-03-22 15:42:00,
2013-03-22 08:52:00,27.0,14.0,-100.00,East,96,0.0,3.0,57,-99.99,,,-99.99,,2013-03-22 15:52:00,
2013-03-22 09:22:00,30.0,13.0,-100.00,SSE,155,0.0,2.0,49,-99.99,,,-99.99,,2013-03-22 16:22:00,
2013-03-22 09:32:00,32.0,15.0,-100.00,WNW,288,0.0,3.0,49,-99.99,,,-99.99,,2013-03-22 16:32:00,
2013-03-22 09:40:00,33.0,11.0,-100.00,NNE,18,1.0,5.0,40,-99.99,,,-99.99,,2013-03-22 16:40:00,
2013-03-22 09:42:00,32.0,15.0,-100.00,WNW,288,0.0,3.0,49,-99.99,,,-99.99,,2013-03-22 16:42:00,
2013-03-22 09:52:00,32.0,15.0,-100.00,NNE,28,0.0,3.0,49,-99.99,,,-99.99,,2013-03-22 16:52:00,
2013-03-22 10:03:00,32.0,16.0,-100.00,NNE,27,0.0,2.0,50,-99.99,,,-99.99,,2013-03-22 17:03:00,
2013-03-22 10:12:00,33.0,11.0,-100.00,NNE,18,1.0,5.0,40,-99.99,,,-99.99,,2013-03-22 17:12:00,
2013-03-22 10:23:00,33.0,11.0,-100.00,NNE,18,1.0,5.0,40,-99.99,,,-99.99,,2013-03-22 17:23:00,
2013-03-22 10:32:00,33.0,11.0,-100.00,NNE,18,1.0,5.0,40,-99.99,,,-99.99,,2013-03-22 17:32:00,
2013-03-22 11:02:00,34.0,-1.0,-100.00,WSW,258,1.0,4.0,22,-99.99,,,-99.99,,2013-03-22 18:02:00,
2013-03-22 11:42:00,35.0,0.0,-100.00,NW,311,1.0,5.0,22,-99.99,,,-99.99,,2013-03-22 18:42:00,
2013-03-22 11:52:00,35.0,0.0,-100.00,NW,311,1.0,5.0,22,-99.99,,,-99.99,,2013-03-22 18:52:00,
2013-03-22 12:02:00,36.0,2.0,-100.00,NNE,18,1.0,8.0,23,-99.99,,,-99.99,,2013-03-22 19:02:00,
2013-03-22 12:12:00,36.0,2.0,-100.00,NNW,342,1.0,5.0,23,-99.99,,,-99.99,,2013-03-22 19:12:00,
2013-03-22 12:22:00,36.0,2.0,-100.00,NNW,342,1.0,5.0,23,-99.99,,,-99.99,,2013-03-22 19:22:00,
2013-03-22 12:32:00,36.0,2.0,-100.00,NNW,342,1.0,5.0,23,-99.99,,,-99.99,,2013-03-22 19:32:00,
2013-03-22 13:22:00,40.0,3.0,-100.00,NW,326,1.0,5.0,21,-99.99,,,-99.99,,2013-03-22 20:22:00,
2013-03-22 13:32:00,40.0,3.0,-100.00,NW,326,1.0,5.0,21,-99.99,,,-99.99,,2013-03-22 20:32:00,
2013-03-22 13:42:00,39.0,5.0,-100.00,NW,308,1.0,5.0,24,-99.99,,,-99.99,,2013-03-22 20:42:00,
2013-03-22 13:52:00,39.0,5.0,-100.00,NW,308,1.0,5.0,24,-99.99,,,-99.99,,2013-03-22 20:52:00,
2013-03-22 14:02:00,41.0,7.0,-100.00,NW,322,1.0,5.0,24,-99.99,,,-99.99,,2013-03-22 21:02:00,
2013-03-22 14:22:00,41.0,0.0,-100.00,West,274,2.0,5.0,17,-99.99,,,-99.99,,2013-03-22 21:22:00,
2013-03-22 14:32:00,41.0,0.0,-100.00,West,274,2.0,5.0,17,-99.99,,,-99.99,,2013-03-22 21:32:00,
2013-03-22 14:42:00,42.0,-1.0,-100.00,NW,322,1.0,4.0,16,-99.99,,,-99.99,,2013-03-22 21:42:00,
2013-03-22 14:53:00,42.0,-1.0,-100.00,NW,322,1.0,4.0,16,-99.99,,,-99.99,,2013-03-22 21:53:00,
2013-03-22 15:02:00,43.0,1.0,-100.00,WNW,302,2.0,5.0,17,-99.99,,,-99.99,,2013-03-22 22:02:00,
2013-03-22 15:12:00,44.0,-2.0,-100.00,NW,315,2.0,5.0,14,-99.99,,,-99.99,,2013-03-22 22:12:00,
2013-03-22 15:22:00,45.0,5.0,-100.00,NW,304,2.0,5.0,19,-99.99,,,-99.99,,2013-03-22 22:22:00,
2013-03-22 15:32:00,45.0,5.0,-100.00,NW,304,2.0,5.0,19,-99.99,,,-99.99,,2013-03-22 22:32:00,
2013-03-22 15:42:00,46.0,9.0,-100.00,NW,315,2.0,9.0,21,-99.99,,,-99.99,,2013-03-22 22:42:00,
2013-03-22 15:52:00,47.0,2.0,-100.00,NNW,335,1.0,4.0,15,-99.99,,,-99.99,,2013-03-22 22:52:00,
2013-03-22 16:02:00,47.0,2.0,-100.00,NNW,335,1.0,4.0,15,-99.99,,,-99.99,,2013-03-22 23:02:00,
2013-03-22 16:12:00,48.0,3.0,-100.00,NNW,340,1.0,4.0,15,-99.99,,,-99.99,,2013-03-22 23:12:00,
2013-03-22 16:22:00,48.0,3.0,-100.00,NNW,336,1.0,4.0,15,-99.99,,,-99.99,,2013-03-22 23:22:00,
2013-03-22 16:32:00,48.0,3.0,-100.00,NW,318,1.0,5.0,15,-99.99,,,-99.99,,2013-03-22 23:32:00,
2013-03-22 16:42:00,48.0,3.0,-100.00,NW,318,1.0,5.0,15,-99.99,,,-99.99,,2013-03-22 23:42:00,
2013-03-22 16:52:00,48.0,3.0,-100.00,NNW,330,1.0,4.0,15,-99.99,,,-99.99,,2013-03-22 23:52:00,
2013-03-22 17:02:00,48.0,3.0,-100.00,NNW,330,1.0,4.0,15,-99.99,,,-99.99,,2013-03-23 00:02:00,
2013-03-22 17:03:00,46.0,0.0,-100.00,West,275,1.0,5.0,14,-99.99,,,-99.99,,2013-03-23 00:03:00,
2013-03-22 17:12:00,48.0,3.0,-100.00,NNW,330,1.0,4.0,15,-99.99,,,-99.99,,2013-03-23 00:12:00,
2013-03-22 17:23:00,47.0,-1.0,-100.00,NW,308,1.0,4.0,13,-99.99,,,-99.99,,2013-03-23 00:23:00,
2013-03-22 17:32:00,47.0,-1.0,-100.00,NW,308,1.0,4.0,13,-99.99,,,-99.99,,2013-03-23 00:32:00,
2013-03-22 17:42:00,46.0,0.0,-100.00,West,275,1.0,5.0,14,-99.99,,,-99.99,,2013-03-23 00:42:00,
2013-03-22 17:52:00,46.0,0.0,-100.00,West,275,1.0,5.0,14,-99.99,,,-99.99,,2013-03-23 00:52:00,